Location: Val-d'Or
(48.1170°N, 77.7670°W)
Time: 07:01:13
(UTC-04:00)

Envisat - Visible Passes

Search period start: 25 September 2018 00:00
Search period end: 05 October 2018 00:00
Orbit: 764 x 766 km, 98.2° (Epoch: 24 September)

Date Brightness Start Highest point End Pass type
(mag) Time Alt. Az. Time Alt. Az. Time Alt. Az.
25 Sep 3.0 19:45:18 10° SSE 19:50:19 64° ENE 19:55:22 10° N visible
25 Sep 5.5 21:26:15 10° SW 21:29:48 19° W 21:33:23 10° NW visible
26 Sep 4.4 20:48:00 10° SSW 20:52:43 38° W 20:57:28 10° NNW visible
27 Sep 3.1 20:10:46 10° S 20:15:51 78° WSW 20:20:59 10° NNW visible
27 Sep 6.0 21:54:20 10° W 21:55:43 11° W 21:57:07 10° WNW visible
28 Sep 3.2 19:34:16 10° SE 19:39:10 52° ENE 19:44:07 10° N visible
28 Sep 5.2 21:14:29 10° SW 21:18:30 23° W 21:22:32 10° NW visible
29 Sep 4.0 20:36:36 10° S 20:41:29 47° W 20:46:24 10° NNW visible
30 Sep 3.0 19:59:35 10° SSE 20:04:40 85° ENE 20:09:47 10° NNW visible
30 Sep 5.8 21:41:46 10° WSW 21:44:22 14° W 21:47:00 10° NW visible
01 Oct 3.4 19:23:18 10° SE 19:28:03 43° ENE 19:32:51 10° N visible
01 Oct 4.9 21:02:51 10° SSW 21:07:13 28° W 21:11:36 10° NW visible
02 Oct 3.6 20:25:16 10° S 20:30:16 58° W 20:35:18 10° NNW visible
03 Oct 2.9 19:48:28 10° SSE 19:53:30 70° ENE 19:58:35 10° N visible
03 Oct 5.6 21:29:43 10° SW 21:33:03 17° W 21:36:24 10° NW visible
04 Oct 3.6 19:12:22 10° SE 19:16:56 35° ENE 19:21:32 10° N visible
04 Oct 4.5 20:51:20 10° SSW 20:55:57 35° W 21:00:37 10° NNW visible
